TimeEST,TemperatureF,Dew PointF,Humidity,Sea Level PressureIn,VisibilityMPH,Wind Direction,Wind SpeedMPH,Gust SpeedMPH,PrecipitationIn,Events,Conditions,WindDirDegrees,DateUTC
12:32 AM,55.4,53.6,94,30.15,10.0,Calm,Calm,-,0.00,,Overcast,0,2011-12-06 05:32:00
12:42 AM,55.4,53.6,94,30.14,10.0,SE,4.6,-,0.00,,Overcast,140,2011-12-06 05:42:00
12:54 AM,55.9,54.0,93,30.11,10.0,ESE,4.6,-,0.00,,Overcast,120,2011-12-06 05:54:00
1:54 AM,57.0,55.0,93,30.10,10.0,SE,4.6,-,0.00,,Overcast,130,2011-12-06 06:54:00
2:27 AM,55.4,55.4,100,30.13,3.0,Variable,4.6,-,0.01,Rain,Light Rain,0,2011-12-06 07:27:00
2:54 AM,55.4,55.4,100,30.12,7.0,ESE,4.6,-,N/A,Rain,Light Rain,120,2011-12-06 07:54:00
3:28 AM,55.4,55.4,100,30.12,10.0,SE,3.5,-,0.00,,Overcast,130,2011-12-06 08:28:00
3:54 AM,57.0,55.0,93,30.09,10.0,SE,5.8,-,0.00,,Overcast,130,2011-12-06 08:54:00
4:02 AM,57.2,55.4,94,30.11,10.0,SE,4.6,-,N/A,,Overcast,140,2011-12-06 09:02:00
4:54 AM,57.0,55.0,93,30.06,5.0,SSE,8.1,-,0.00,Rain,Light Rain,150,2011-12-06 09:54:00
5:03 AM,57.2,55.4,94,30.10,6.0,SSE,8.1,-,0.00,,Overcast,150,2011-12-06 10:03:00
5:19 AM,57.2,55.4,94,30.10,8.0,SSE,6.9,-,0.00,,Overcast,150,2011-12-06 10:19:00
5:38 AM,57.2,55.4,94,30.10,6.0,SSE,6.9,-,0.00,,Overcast,150,2011-12-06 10:38:00
5:54 AM,57.0,55.0,93,30.07,8.0,SSE,5.8,-,0.01,,Overcast,150,2011-12-06 10:54:00
6:14 AM,57.2,55.4,94,30.10,3.0,SSE,8.1,-,0.00,Rain,Light Rain,150,2011-12-06 11:14:00
6:28 AM,57.2,55.4,94,30.09,5.0,SSE,9.2,-,0.01,Rain,Light Rain,150,2011-12-06 11:28:00
6:49 AM,57.2,55.4,94,30.10,5.0,SSE,9.2,-,0.01,Rain,Light Rain,160,2011-12-06 11:49:00
6:50 AM,57.0,55.0,93,30.07,5.0,SSE,8.1,-,0.01,Rain,Light Rain,160,2011-12-06 11:50:00
7:52 AM,57.2,55.4,94,30.10,6.0,SE,6.9,-,0.01,,Overcast,140,2011-12-06 12:52:00
7:54 AM,57.0,55.0,93,30.06,5.0,Variable,6.9,-,0.01,Rain,Light Rain,0,2011-12-06 12:54:00
8:17 AM,57.2,55.4,94,30.10,2.5,SSE,8.1,-,0.01,Rain,Light Rain,150,2011-12-06 13:17:00
8:45 AM,57.2,55.4,94,30.10,4.0,SSE,6.9,-,0.02,Rain,Light Rain,160,2011-12-06 13:45:00
8:51 AM,57.2,55.4,94,30.10,2.5,SSE,5.8,-,0.02,Rain,Light Rain,160,2011-12-06 13:51:00
8:54 AM,57.0,55.9,96,30.07,2.0,South,4.6,-,0.02,Rain,Light Rain,170,2011-12-06 13:54:00
9:10 AM,57.2,55.4,94,30.11,1.5,Calm,Calm,-,N/A,Rain,Light Rain,0,2011-12-06 14:10:00
9:21 AM,57.2,55.4,94,30.12,1.2,Calm,Calm,-,0.03,Rain,Light Rain,0,2011-12-06 14:21:00
9:28 AM,57.2,55.4,94,30.11,1.5,Variable,3.5,-,0.03,Rain,Light Rain,0,2011-12-06 14:28:00
9:31 AM,57.2,55.4,94,30.11,1.8,SE,12.7,28.8,0.04,Rain,Light Rain,140,2011-12-06 14:31:00
9:38 AM,57.2,55.4,94,30.11,1.5,Calm,Calm,-,0.05,Rain,Light Rain,0,2011-12-06 14:38:00
9:54 AM,57.0,55.9,96,30.08,2.5,ESE,4.6,-,0.06,Rain,Light Rain,120,2011-12-06 14:54:00
10:05 AM,57.2,55.4,94,30.11,4.0,ESE,4.6,-,0.01,Rain,Light Rain,110,2011-12-06 15:05:00
10:21 AM,57.2,55.4,94,30.11,1.8,Variable,3.5,-,0.02,Rain,Light Rain,0,2011-12-06 15:21:00
10:33 AM,57.2,57.2,100,30.11,3.0,Calm,Calm,-,0.02,Rain,Light Rain,0,2011-12-06 15:33:00
10:39 AM,57.2,57.2,100,30.11,2.5,South,3.5,-,0.03,Rain,Light Rain,180,2011-12-06 15:39:00
10:54 AM,57.0,55.9,96,30.08,2.0,Calm,Calm,-,0.04,Rain,Light Rain,0,2011-12-06 15:54:00
11:01 AM,57.2,55.4,94,30.11,1.5,Calm,Calm,-,0.01,Rain,Light Rain,0,2011-12-06 16:01:00
11:21 AM,57.2,55.4,94,30.11,2.0,SE,3.5,-,0.03,Rain,Light Rain,130,2011-12-06 16:21:00
11:32 AM,57.2,55.4,94,30.09,3.0,SE,6.9,-,0.04,Rain,Light Rain,130,2011-12-06 16:32:00
11:41 AM,57.2,57.2,100,30.09,3.0,ESE,5.8,-,0.04,Rain,Light Rain,120,2011-12-06 16:41:00
11:54 AM,57.2,57.2,100,30.08,5.0,SSE,5.8,-,N/A,,Overcast,150,2011-12-06 16:54:00
12:02 PM,59.0,57.2,94,30.07,4.0,SE,6.9,-,N/A,,Overcast,140,2011-12-06 17:02:00
12:54 PM,59.0,57.0,93,30.02,4.0,South,9.2,-,0.00,,Overcast,170,2011-12-06 17:54:00
1:22 PM,60.8,57.2,88,30.04,4.0,SSE,8.1,-,N/A,,Overcast,160,2011-12-06 18:22:00
1:41 PM,60.8,57.2,88,30.03,4.0,South,9.2,19.6,N/A,,Overcast,180,2011-12-06 18:41:00
1:54 PM,61.0,57.9,90,29.98,10.0,South,13.8,-,N/A,,Overcast,170,2011-12-06 18:54:00
2:20 PM,60.8,57.2,88,30.02,10.0,South,12.7,-,N/A,,Overcast,170,2011-12-06 19:20:00
2:32 PM,60.8,57.2,88,30.02,9.0,South,9.2,-,N/A,,Overcast,180,2011-12-06 19:32:00
2:48 PM,60.8,57.2,88,30.02,4.0,South,6.9,-,0.00,,Overcast,180,2011-12-06 19:48:00
2:54 PM,60.1,57.9,93,29.99,4.0,SSW,5.8,-,0.00,Rain,Light Rain,200,2011-12-06 19:54:00
3:01 PM,60.8,57.2,88,30.03,6.0,South,5.8,-,0.00,Rain,Light Rain,170,2011-12-06 20:01:00
3:24 PM,59.0,57.2,94,30.02,8.0,SSE,8.1,-,0.02,Rain,Light Rain,160,2011-12-06 20:24:00
3:31 PM,59.0,57.2,94,30.02,6.0,SSE,9.2,-,0.02,Rain,Light Rain,160,2011-12-06 20:31:00
3:54 PM,59.0,57.9,96,29.99,4.0,SSE,5.8,-,0.04,Rain,Rain,150,2011-12-06 20:54:00
4:54 PM,59.0,57.9,96,29.99,10.0,South,9.2,-,0.05,,Overcast,170,2011-12-06 21:54:00
5:01 PM,59.0,57.2,94,30.02,10.0,SSE,8.1,-,N/A,Rain,Light Rain,150,2011-12-06 22:01:00
5:54 PM,59.0,57.9,96,29.98,10.0,SE,5.8,-,0.00,,Overcast,130,2011-12-06 22:54:00
6:14 PM,59.0,57.2,94,30.02,10.0,South,3.5,-,N/A,,Overcast,180,2011-12-06 23:14:00
6:40 PM,59.0,57.2,94,30.03,10.0,Calm,Calm,-,N/A,,Overcast,0,2011-12-06 23:40:00
6:54 PM,59.0,57.9,96,29.99,10.0,Calm,Calm,-,N/A,,Overcast,0,2011-12-06 23:54:00
7:12 PM,59.0,57.2,94,30.02,10.0,SSE,3.5,-,N/A,,Overcast,160,2011-12-07 00:12:00
7:54 PM,57.9,57.0,97,29.97,9.0,SSE,5.8,-,N/A,,Overcast,160,2011-12-07 00:54:00
8:54 PM,57.9,57.0,97,29.96,8.0,Calm,Calm,-,N/A,,Overcast,0,2011-12-07 01:54:00
9:54 PM,57.9,57.0,97,29.95,3.0,South,4.6,-,0.06,Rain,Rain,180,2011-12-07 02:54:00
10:00 PM,57.2,57.2,100,29.97,1.8,ESE,4.6,-,0.06,Rain,Heavy Rain,120,2011-12-07 03:00:00
10:06 PM,57.2,57.2,100,29.98,2.0,SSE,3.5,-,0.11,Rain,Rain,150,2011-12-07 03:06:00
10:16 PM,57.2,57.2,100,29.96,3.0,Calm,Calm,-,0.14,Rain,Heavy Rain,0,2011-12-07 03:16:00
10:28 PM,59.0,57.2,94,29.97,5.0,South,3.5,-,0.17,Rain,Light Rain,170,2011-12-07 03:28:00
10:35 PM,57.2,57.2,100,29.98,2.5,South,5.8,-,0.19,Rain,Heavy Rain,180,2011-12-07 03:35:00
10:43 PM,57.2,57.2,100,29.98,1.8,Calm,Calm,-,0.27,Rain,Heavy Rain,0,2011-12-07 03:43:00
10:54 PM,57.9,57.9,100,29.93,1.8,Calm,Calm,-,0.35,Rain,Heavy Rain,0,2011-12-07 03:54:00
11:01 PM,57.2,57.2,100,29.96,2.5,Calm,Calm,-,0.02,Rain,Light Rain,0,2011-12-07 04:01:00
11:10 PM,57.2,57.2,100,29.97,3.0,Calm,Calm,-,0.03,Rain,Rain,0,2011-12-07 04:10:00
11:15 PM,57.2,57.2,100,29.96,1.8,Calm,Calm,-,0.07,Rain,Heavy Rain,0,2011-12-07 04:15:00
11:28 PM,57.2,57.2,100,29.96,2.5,Calm,Calm,-,0.14,Rain,Rain,0,2011-12-07 04:28:00
11:34 PM,57.2,57.2,100,29.95,1.2,Calm,Calm,-,0.14,Rain,Light Rain,0,2011-12-07 04:34:00
11:47 PM,57.2,57.2,100,29.95,1.5,South,3.5,-,0.15,Rain,Light Rain,190,2011-12-07 04:47:00
11:54 PM,57.9,57.0,97,29.90,1.2,SE,4.6,-,0.16,Rain,Light Rain,130,2011-12-07 04:54:00
11:58 PM,57.2,57.2,100,29.94,2.0,ESE,5.8,-,0.00,Rain,Light Rain,120,2011-12-07 04:58:00